GLD1793 SBPS-SBCF

Flight info

Callsign GLD1793
Flight time 1h 11m
Altitude 40000
Route EDRA1A EDRAG DCT DORDU DCT OPTEB ALON1A
Aircraft B738/M-SDFGIRY/S

Departure

Time 2026-04-21 19:20
Airport Porto Seguro International Airport (SBPS)

Arrival

Time 2026-04-21 20:32
Airport Tancredo Neves International Airport (SBCF)
Time Latitude Longitude Altitude Speed Heading
2026-04-21 19:02 -16.44072 -39.08130 171 ft 0 kts 176°
2026-04-21 19:14 -16.44056 -39.08131 171 ft 2 kts 177°
2026-04-21 19:14 -16.44040 -39.08132 171 ft 2 kts 181°
2026-04-21 19:15 -16.44024 -39.08128 171 ft 2 kts 240°
2026-04-21 19:15 -16.44021 -39.08122 171 ft 0 kts 255°
2026-04-21 19:16 -16.44027 -39.08143 171 ft 6 kts 254°
2026-04-21 19:16 -16.44042 -39.08200 172 ft 10 kts 254°
2026-04-21 19:17 -16.43996 -39.08305 173 ft 10 kts 343°
2026-04-21 19:17 -16.43937 -39.08336 172 ft 10 kts 302°
2026-04-21 19:17 -16.43938 -39.08405 172 ft 10 kts 256°
2026-04-21 19:18 -16.43956 -39.08472 173 ft 10 kts 255°
2026-04-21 19:18 -16.43974 -39.08543 174 ft 11 kts 256°
2026-04-21 19:18 -16.43999 -39.08635 175 ft 17 kts 253°
2026-04-21 19:18 -16.44033 -39.08778 177 ft 24 kts 259°
2026-04-21 19:19 -16.44055 -39.08962 180 ft 25 kts 260°
2026-04-21 19:19 -16.44100 -39.08972 180 ft 6 kts 95°
2026-04-21 19:19 -16.44079 -39.08924 180 ft 9 kts 63°
2026-04-21 19:19 -16.44067 -39.08886 179 ft 1 kts 75°
2026-04-21 19:20 -16.44043 -39.08800 178 ft 51 kts 74°
2026-04-21 19:20 -16.43844 -39.08073 171 ft 153 kts 73°
2026-04-21 19:20 -16.43501 -39.06812 778 ft 192 kts 79°
2026-04-21 19:20 -16.43150 -39.05411 2051 ft 190 kts 78°
2026-04-21 19:21 -16.42878 -39.04196 3695 ft 166 kts 90°
2026-04-21 19:21 -16.43157 -39.03028 4492 ft 180 kts 128°
2026-04-21 19:21 -16.44309 -39.02313 4818 ft 217 kts 171°
2026-04-21 19:21 -16.45942 -39.02295 5141 ft 253 kts 180°
2026-04-21 19:22 -16.47767 -39.02334 5913 ft 265 kts 180°
2026-04-21 19:22 -16.49627 -39.02372 6888 ft 271 kts 179°
2026-04-21 19:22 -16.51541 -39.02401 7777 ft 278 kts 180°
2026-04-21 19:22 -16.53507 -39.02420 8699 ft 285 kts 180°
2026-04-21 19:23 -16.55502 -39.02431 9656 ft 289 kts 180°
2026-04-21 19:23 -16.57541 -39.02438 10500 ft 299 kts 180°
2026-04-21 19:23 -16.59707 -39.02443 10791 ft 327 kts 180°
2026-04-21 19:23 -16.62008 -39.02823 10947 ft 355 kts 202°
2026-04-21 19:24 -16.64079 -39.04331 11273 ft 373 kts 227°
2026-04-21 19:24 -16.65743 -39.06443 11928 ft 380 kts 232°
2026-04-21 19:24 -16.67378 -39.08622 12656 ft 384 kts 232°
2026-04-21 19:24 -16.69027 -39.10828 13389 ft 387 kts 232°
2026-04-21 19:25 -16.70700 -39.13051 14070 ft 391 kts 232°
2026-04-21 19:25 -16.72405 -39.15297 14660 ft 395 kts 232°
2026-04-21 19:25 -16.74125 -39.17548 15284 ft 399 kts 232°
2026-04-21 19:25 -16.75866 -39.19817 15904 ft 402 kts 231°
2026-04-21 19:26 -16.77618 -39.22098 16504 ft 405 kts 231°
2026-04-21 19:26 -16.79391 -39.24406 17068 ft 409 kts 231°
2026-04-21 19:26 -16.81180 -39.26735 17639 ft 412 kts 231°
2026-04-21 19:26 -16.82980 -39.29080 18196 ft 415 kts 231°
2026-04-21 19:27 -16.84795 -39.31445 18672 ft 419 kts 231°
2026-04-21 19:27 -16.86608 -39.33843 19098 ft 423 kts 233°
2026-04-21 19:27 -16.87928 -39.36592 19538 ft 429 kts 252°
2026-04-21 19:27 -16.88552 -39.39642 20033 ft 431 kts 258°
2026-04-21 19:28 -16.89087 -39.42737 20441 ft 435 kts 258°
2026-04-21 19:28 -16.89632 -39.45866 20813 ft 439 kts 258°
2026-04-21 19:28 -16.90197 -39.48978 21168 ft 443 kts 257°
2026-04-21 19:28 -16.90791 -39.52141 21557 ft 446 kts 257°
2026-04-21 19:29 -16.91397 -39.55338 21958 ft 449 kts 257°
2026-04-21 19:29 -16.92006 -39.58546 22322 ft 452 kts 256°
2026-04-21 19:29 -16.92618 -39.61775 22692 ft 455 kts 256°
2026-04-21 19:29 -16.93231 -39.65019 23043 ft 457 kts 256°
2026-04-21 19:30 -16.93849 -39.68293 23388 ft 460 kts 256°
2026-04-21 19:30 -16.94469 -39.71586 23689 ft 463 kts 256°
2026-04-21 19:30 -16.95092 -39.74898 23971 ft 465 kts 256°
2026-04-21 19:30 -16.95716 -39.78220 24293 ft 466 kts 256°
2026-04-21 19:31 -16.96341 -39.81550 24613 ft 467 kts 256°
2026-04-21 19:31 -16.96967 -39.84884 24904 ft 468 kts 256°
2026-04-21 19:31 -16.97595 -39.88231 25190 ft 470 kts 256°
2026-04-21 19:31 -16.98221 -39.91545 25458 ft 471 kts 255°
2026-04-21 19:32 -16.98953 -39.94933 25733 ft 472 kts 253°
2026-04-21 19:32 -16.99745 -39.98260 26011 ft 473 kts 253°
2026-04-21 19:32 -17.00555 -40.01549 26287 ft 474 kts 252°
2026-04-21 19:32 -17.01380 -40.04891 26545 ft 476 kts 253°
2026-04-21 19:33 -17.01935 -40.07158 26727 ft 477 kts 253°
2026-04-21 19:33 -17.03011 -40.11618 27080 ft 478 kts 253°
2026-04-21 19:33 -17.03813 -40.14985 27345 ft 479 kts 253°
2026-04-21 19:33 -17.04613 -40.18372 27591 ft 480 kts 253°
2026-04-21 19:34 -17.05411 -40.21764 27829 ft 481 kts 253°
2026-04-21 19:34 -17.06211 -40.25171 28045 ft 483 kts 253°
2026-04-21 19:34 -17.07013 -40.28590 28264 ft 484 kts 253°
2026-04-21 19:34 -17.07815 -40.32014 28480 ft 485 kts 253°
2026-04-21 19:35 -17.08620 -40.35447 28714 ft 486 kts 253°
2026-04-21 19:35 -17.10205 -40.42231 29748 ft 476 kts 253°
2026-04-21 19:35 -17.10980 -40.45543 30087 ft 476 kts 253°
2026-04-21 19:36 -17.11766 -40.48905 30337 ft 476 kts 253°
2026-04-21 19:36 -17.12554 -40.52275 30610 ft 476 kts 253°
2026-04-21 19:36 -17.13337 -40.55628 30975 ft 473 kts 253°
2026-04-21 19:36 -17.14113 -40.58958 31392 ft 470 kts 253°
2026-04-21 19:37 -17.14886 -40.62278 31803 ft 467 kts 253°
2026-04-21 19:37 -17.15653 -40.65571 32198 ft 466 kts 253°
2026-04-21 19:37 -17.16420 -40.68865 32542 ft 465 kts 253°
2026-04-21 19:37 -17.17185 -40.72152 32881 ft 465 kts 253°
2026-04-21 19:38 -17.17948 -40.75439 33261 ft 463 kts 253°
2026-04-21 19:38 -17.18695 -40.78657 33668 ft 462 kts 253°
2026-04-21 19:38 -17.19207 -40.80862 33929 ft 461 kts 253°
2026-04-21 19:39 -17.20977 -40.88492 34026 ft 466 kts 253°
2026-04-21 19:39 -17.22492 -40.95047 34023 ft 460 kts 253°
2026-04-21 19:40 -17.23993 -41.01551 34037 ft 460 kts 253°
2026-04-21 19:40 -17.25496 -41.08064 34021 ft 460 kts 253°
2026-04-21 19:41 -17.26996 -41.14575 34028 ft 460 kts 253°
2026-04-21 19:41 -17.28494 -41.21094 34034 ft 461 kts 253°
2026-04-21 19:42 -17.29982 -41.27576 34041 ft 461 kts 253°
2026-04-21 19:42 -17.31476 -41.34094 34036 ft 460 kts 253°
2026-04-21 19:43 -17.32969 -41.40619 34030 ft 460 kts 253°
2026-04-21 19:43 -17.34459 -41.47143 34043 ft 461 kts 253°
2026-04-21 19:44 -17.35946 -41.53662 34034 ft 460 kts 253°
2026-04-21 19:44 -17.37432 -41.60188 34031 ft 460 kts 253°
2026-04-21 19:45 -17.38912 -41.66698 34032 ft 459 kts 253°
2026-04-21 19:45 -17.40390 -41.73213 34062 ft 459 kts 253°
2026-04-21 19:46 -17.41856 -41.79678 34045 ft 459 kts 253°
2026-04-21 19:46 -17.43326 -41.86177 34043 ft 458 kts 253°
2026-04-21 19:47 -17.44793 -41.92672 34034 ft 458 kts 253°
2026-04-21 19:47 -17.46674 -41.99007 34047 ft 453 kts 242°
2026-04-21 19:48 -17.50097 -42.04478 34044 ft 448 kts 227°
2026-04-21 19:48 -17.53504 -42.08577 34042 ft 448 kts 227°
2026-04-21 19:49 -17.57614 -42.13486 34054 ft 448 kts 227°
2026-04-21 19:49 -17.61701 -42.18424 34037 ft 448 kts 227°
2026-04-21 19:50 -17.65772 -42.23380 34045 ft 448 kts 227°
2026-04-21 19:50 -17.69811 -42.28311 34040 ft 448 kts 228°
2026-04-21 19:51 -17.73873 -42.33275 34033 ft 448 kts 228°
2026-04-21 19:51 -17.77931 -42.38235 34049 ft 447 kts 228°
2026-04-21 19:52 -17.81996 -42.43207 34043 ft 447 kts 228°
2026-04-21 19:52 -17.86020 -42.48133 34042 ft 447 kts 228°
2026-04-21 19:53 -17.90064 -42.53087 34035 ft 447 kts 228°
2026-04-21 19:53 -17.94109 -42.58046 34048 ft 446 kts 228°
2026-04-21 19:54 -17.98148 -42.63002 34047 ft 446 kts 228°
2026-04-21 19:54 -18.02182 -42.67955 34054 ft 446 kts 228°
2026-04-21 19:55 -18.06216 -42.72912 34040 ft 446 kts 228°
2026-04-21 19:55 -18.10243 -42.77865 34047 ft 446 kts 228°
2026-04-21 19:56 -18.14268 -42.82818 34058 ft 446 kts 229°
2026-04-21 19:56 -18.18292 -42.87774 34058 ft 445 kts 229°
2026-04-21 19:57 -18.22286 -42.92698 34049 ft 445 kts 229°
2026-04-21 19:57 -18.26305 -42.97656 34055 ft 444 kts 229°
2026-04-21 19:58 -18.30312 -43.02604 34051 ft 444 kts 229°
2026-04-21 19:58 -18.34326 -43.07564 34058 ft 444 kts 229°
2026-04-21 19:59 -18.38328 -43.12462 34045 ft 444 kts 226°
2026-04-21 19:59 -18.43095 -43.16631 34054 ft 443 kts 217°
2026-04-21 20:00 -18.48033 -43.20462 34054 ft 443 kts 217°
2026-04-21 20:00 -18.52983 -43.24335 33995 ft 444 kts 217°
2026-04-21 20:00 -18.55479 -43.26306 33288 ft 449 kts 217°
2026-04-21 20:01 -18.57973 -43.28281 32528 ft 447 kts 217°
2026-04-21 20:01 -18.60461 -43.30256 31733 ft 449 kts 217°
2026-04-21 20:01 -18.62962 -43.32243 30871 ft 452 kts 217°
2026-04-21 20:01 -18.65486 -43.34248 29933 ft 457 kts 217°
2026-04-21 20:02 -18.68040 -43.36279 28836 ft 462 kts 217°
2026-04-21 20:02 -18.70602 -43.38316 28043 ft 459 kts 217°
2026-04-21 20:02 -18.73148 -43.40341 27331 ft 455 kts 217°
2026-04-21 20:02 -18.75636 -43.42320 26615 ft 452 kts 217°
2026-04-21 20:03 -18.78137 -43.44310 25917 ft 448 kts 217°
2026-04-21 20:03 -18.80623 -43.46289 25215 ft 444 kts 217°
2026-04-21 20:03 -18.83049 -43.48221 24526 ft 431 kts 217°
2026-04-21 20:03 -18.85382 -43.50080 24268 ft 408 kts 217°
2026-04-21 20:04 -18.87588 -43.51839 24147 ft 384 kts 217°
2026-04-21 20:04 -18.89681 -43.53508 23742 ft 372 kts 216°
2026-04-21 20:04 -18.91741 -43.55151 22970 ft 370 kts 216°
2026-04-21 20:04 -18.93793 -43.56787 22193 ft 368 kts 216°
2026-04-21 20:05 -18.95819 -43.58404 21524 ft 363 kts 216°
2026-04-21 20:05 -18.97800 -43.59985 20881 ft 358 kts 216°
2026-04-21 20:05 -18.99800 -43.61582 20241 ft 353 kts 216°
2026-04-21 20:05 -19.01754 -43.63141 19621 ft 350 kts 215°
2026-04-21 20:06 -19.03689 -43.64669 19012 ft 345 kts 215°
2026-04-21 20:06 -19.05580 -43.66155 18421 ft 341 kts 214°
2026-04-21 20:06 -19.07484 -43.67650 17657 ft 343 kts 214°
2026-04-21 20:06 -19.09446 -43.69190 16638 ft 358 kts 215°
2026-04-21 20:07 -19.11452 -43.70767 15964 ft 361 kts 216°
2026-04-21 20:07 -19.13465 -43.72354 15498 ft 358 kts 216°
2026-04-21 20:07 -19.15447 -43.73917 15052 ft 354 kts 216°
2026-04-21 20:07 -19.17404 -43.75461 14567 ft 351 kts 216°
2026-04-21 20:08 -19.19370 -43.77012 14073 ft 350 kts 216°
2026-04-21 20:08 -19.21312 -43.78545 13571 ft 347 kts 216°
2026-04-21 20:08 -19.23246 -43.80071 13056 ft 344 kts 216°
2026-04-21 20:08 -19.25129 -43.81558 12406 ft 335 kts 217°
2026-04-21 20:09 -19.26885 -43.83131 11661 ft 332 kts 225°
2026-04-21 20:09 -19.28438 -43.84866 11188 ft 320 kts 227°
2026-04-21 20:09 -19.29927 -43.86575 10754 ft 311 kts 227°
2026-04-21 20:09 -19.31361 -43.88217 10622 ft 297 kts 227°
2026-04-21 20:10 -19.32742 -43.89786 10481 ft 287 kts 226°
2026-04-21 20:10 -19.34112 -43.91333 10370 ft 291 kts 226°
2026-04-21 20:10 -19.35505 -43.92901 10253 ft 290 kts 226°
2026-04-21 20:10 -19.36855 -43.94418 10120 ft 274 kts 226°
2026-04-21 20:11 -19.38136 -43.95856 9882 ft 264 kts 226°
2026-04-21 20:11 -19.39368 -43.97256 9586 ft 256 kts 230°
2026-04-21 20:11 -19.40146 -43.98932 9318 ft 258 kts 256°
2026-04-21 20:11 -19.40447 -44.00830 9078 ft 265 kts 261°
2026-04-21 20:12 -19.40692 -44.02796 8838 ft 273 kts 261°
2026-04-21 20:12 -19.41171 -44.04783 8325 ft 282 kts 243°
2026-04-21 20:12 -19.42084 -44.06605 7901 ft 278 kts 241°
2026-04-21 20:12 -19.42987 -44.08383 7576 ft 269 kts 241°
2026-04-21 20:13 -19.43870 -44.10068 7342 ft 256 kts 234°
2026-04-21 20:13 -19.45162 -44.11190 7202 ft 234 kts 198°
2026-04-21 20:13 -19.46683 -44.11196 7073 ft 213 kts 158°
2026-04-21 20:13 -19.47946 -44.10510 6970 ft 195 kts 151°
2026-04-21 20:14 -19.49076 -44.09783 6963 ft 188 kts 146°
2026-04-21 20:14 -19.50179 -44.08995 6985 ft 194 kts 145°
2026-04-21 20:14 -19.51261 -44.08111 6994 ft 199 kts 141°
2026-04-21 20:14 -19.52324 -44.07149 6996 ft 201 kts 140°
2026-04-21 20:15 -19.53371 -44.06176 7068 ft 198 kts 140°
2026-04-21 20:15 -19.54376 -44.05239 6961 ft 191 kts 140°
2026-04-21 20:15 -19.55416 -44.04279 6361 ft 203 kts 140°
2026-04-21 20:15 -19.56509 -44.03277 5632 ft 215 kts 140°
2026-04-21 20:16 -19.57688 -44.02217 4777 ft 230 kts 140°
2026-04-21 20:16 -19.58945 -44.01109 3912 ft 241 kts 139°
2026-04-21 20:16 -19.60180 -43.99905 3388 ft 239 kts 135°
2026-04-21 20:16 -19.61341 -43.98725 3012 ft 218 kts 137°
2026-04-21 20:17 -19.62415 -43.97756 2841 ft 186 kts 139°
2026-04-21 20:17 -19.63315 -43.96924 2932 ft 166 kts 139°
2026-04-21 20:17 -19.64180 -43.96144 3015 ft 166 kts 139°
2026-04-21 20:17 -19.65151 -43.95274 3258 ft 205 kts 135°
2026-04-21 20:18 -19.65765 -43.94470 3597 ft 216 kts 120°
2026-04-21 20:18 -19.66362 -43.92330 4203 ft 252 kts 91°
2026-04-21 20:18 -19.66113 -43.90335 4153 ft 293 kts 74°
2026-04-21 20:18 -19.65259 -43.88256 3999 ft 318 kts 59°
2026-04-21 20:19 -19.63940 -43.86500 3804 ft 288 kts 43°
2026-04-21 20:19 -19.62425 -43.85362 3637 ft 256 kts 28°
2026-04-21 20:19 -19.60896 -43.84601 3465 ft 231 kts 24°
2026-04-21 20:19 -19.59393 -43.84340 3250 ft 214 kts 348°
2026-04-21 20:20 -19.58216 -43.85134 3055 ft 197 kts 299°
2026-04-21 20:20 -19.57748 -43.86392 3398 ft 184 kts 288°
2026-04-21 20:20 -19.57286 -43.87735 3061 ft 188 kts 289°
2026-04-21 20:20 -19.56877 -43.88908 3553 ft 166 kts 289°
2026-04-21 20:21 -19.56458 -43.90117 4070 ft 179 kts 289°
2026-04-21 20:21 -19.56022 -43.91373 4234 ft 184 kts 289°
2026-04-21 20:21 -19.55584 -43.92637 4187 ft 182 kts 289°
2026-04-21 20:21 -19.55152 -43.93886 4128 ft 178 kts 289°
2026-04-21 20:22 -19.54724 -43.95117 4123 ft 179 kts 289°
2026-04-21 20:22 -19.53857 -43.97580 4112 ft 174 kts 289°
2026-04-21 20:22 -19.53453 -43.98753 4104 ft 165 kts 289°
2026-04-21 20:23 -19.53078 -43.99838 4139 ft 149 kts 289°
2026-04-21 20:23 -19.52627 -44.00812 4132 ft 145 kts 302°
2026-04-21 20:23 -19.51964 -44.01607 4120 ft 147 kts 333°
2026-04-21 20:23 -19.50975 -44.01794 4140 ft 146 kts 357°
2026-04-21 20:24 -19.49948 -44.01854 4138 ft 148 kts 358°
2026-04-21 20:24 -19.48918 -44.01915 4123 ft 149 kts 358°
2026-04-21 20:24 -19.47887 -44.01976 4128 ft 148 kts 358°
2026-04-21 20:24 -19.46855 -44.02036 4117 ft 148 kts 358°
2026-04-21 20:25 -19.45827 -44.02093 4119 ft 148 kts 358°
2026-04-21 20:25 -19.44892 -44.02439 4086 ft 146 kts 311°
2026-04-21 20:25 -19.44728 -44.03434 4132 ft 144 kts 244°
2026-04-21 20:25 -19.45445 -44.04140 4140 ft 142 kts 214°
2026-04-21 20:26 -19.46105 -44.04907 4130 ft 142 kts 229°
2026-04-21 20:26 -19.46747 -44.05713 4129 ft 143 kts 227°
2026-04-21 20:26 -19.47397 -44.06522 4083 ft 145 kts 228°
2026-04-21 20:26 -19.48058 -44.07344 4075 ft 147 kts 226°
2026-04-21 20:27 -19.48882 -44.07972 4073 ft 146 kts 203°
2026-04-21 20:27 -19.49853 -44.08227 4057 ft 142 kts 181°
2026-04-21 20:27 -19.50810 -44.08099 4058 ft 138 kts 162°
2026-04-21 20:27 -19.51665 -44.07654 4063 ft 138 kts 144°
2026-04-21 20:28 -19.52426 -44.07020 4071 ft 140 kts 140°
2026-04-21 20:28 -19.53174 -44.06347 4070 ft 142 kts 139°
2026-04-21 20:28 -19.53920 -44.05661 4130 ft 142 kts 139°
2026-04-21 20:28 -19.54659 -44.04975 4133 ft 141 kts 139°
2026-04-21 20:29 -19.55401 -44.04285 4135 ft 142 kts 139°
2026-04-21 20:29 -19.56141 -44.03597 4136 ft 141 kts 139°
2026-04-21 20:29 -19.56880 -44.02909 4123 ft 142 kts 138°
2026-04-21 20:29 -19.57624 -44.02216 3946 ft 142 kts 138°
2026-04-21 20:30 -19.58359 -44.01533 3777 ft 138 kts 138°
2026-04-21 20:30 -19.59080 -44.00862 3619 ft 138 kts 138°
2026-04-21 20:30 -19.59793 -44.00198 3449 ft 138 kts 137°
2026-04-21 20:30 -19.60510 -43.99531 3252 ft 135 kts 137°
2026-04-21 20:31 -19.61208 -43.98883 3071 ft 133 kts 137°
2026-04-21 20:31 -19.61906 -43.98231 2914 ft 133 kts 138°
2026-04-21 20:31 -19.62601 -43.97587 2813 ft 129 kts 137°
2026-04-21 20:31 -19.63168 -43.97060 2809 ft 80 kts 139°
2026-04-21 20:32 -19.63440 -43.96807 2808 ft 21 kts 138°
2026-04-21 20:32 -19.63535 -43.96700 2811 ft 15 kts 123°
2026-04-21 20:32 -19.63582 -43.96601 2814 ft 15 kts 114°
2026-04-21 20:32 -19.63605 -43.96537 2811 ft 5 kts 103°
2026-04-21 20:33 -19.63601 -43.96502 2811 ft 5 kts 66°
2026-04-21 20:33 -19.63575 -43.96482 2813 ft 5 kts 15°
2026-04-21 20:33 -19.63544 -43.96490 2813 ft 5 kts 331°
2026-04-21 20:33 -19.63515 -43.96512 2811 ft 7 kts 321°
2026-04-21 20:34 -19.63469 -43.96555 2813 ft 10 kts 320°
2026-04-21 20:34 -19.63436 -43.96585 2812 ft 9 kts 319°
2026-04-21 20:34 -19.63386 -43.96631 2812 ft 11 kts 318°
2026-04-21 20:34 -19.63323 -43.96689 2810 ft 13 kts 324°
2026-04-21 20:35 -19.63242 -43.96679 2812 ft 3 kts 45°
2026-04-21 20:35 -19.63226 -43.96660 2810 ft 7 kts 52°
2026-04-21 20:35 -19.63194 -43.96620 2815 ft 7 kts 36°
2026-04-21 20:35 -19.63149 -43.96621 2813 ft 4 kts 347°
2026-04-21 20:36 -19.63112 -43.96625 2815 ft 7 kts 346°
2026-04-21 20:36 -19.63066 -43.96656 2810 ft 9 kts 317°
2026-04-21 20:36 -19.63020 -43.96702 2811 ft 9 kts 315°
2026-04-21 20:36 -19.62976 -43.96747 2812 ft 9 kts 317°
2026-04-21 20:37 -19.62964 -43.96759 2810 ft 0 kts 317°
2026-04-21 20:37 -19.62963 -43.96759 2810 ft 0 kts 317°
2026-04-21 20:37 -19.62962 -43.96761 2810 ft 1 kts 318°
2026-04-21 20:37 -19.62943 -43.96759 2810 ft 4 kts 26°
2026-04-21 20:38 -19.62921 -43.96742 2810 ft 0 kts 40°